Find Starlink 2487

NORAD ID: 48144 Int'l Des: 2021-027 Owner: SPXS Country: US Constellation: starlink operational
LEOCIRCULARSTARLINK_TYPE

Current View

Loading 3D Globe...

About Starlink 2487

Description loading...

Upcoming Passes

Passes for default location (London). Set your location on the main map for personalized predictions.

Altitude History

Loading altitude history...

Two-Line Element Set

1 48144U 21027BE 26149.34777667 .00001774 00000-0 68939-4 0 9990
2 48144 53.1600 137.3383 0001585 86.9702 273.1481 15.31699894285036
Epoch: May 29, 2026 • Age: 32 hours

Current Status

Altitude 475.7 km
Velocity 7.63 km/s
Sub-Earth Point -16.99°S, 172.07°W
Launch Date Apr 7, 2021
Age 5.1 years
Type internet

Technical Details

Classification Payload
Mass 260.00 kg
Dry Mass 248.00 kg
Total Mass 260.00 kg
Length 0.20 m
Diameter 2.80 m
Span 9.00 m
Shape Box + pan
Manufacturer SPXS
Bus Type Starlink
Phase Status In Orbit
Owner/State SPXS/US

Most Searched